Regional Weather Roundup
Issued by NWS

Home | Current Version | Previous Version | Graphics & Text | Print | Product List | Glossary On
Versions: 1 2 3 4 5 6 7 8 9 10 11 12 13 14 15 16 17 18 19 20 21 22 23 24 25 26 27 28 29 30 31 32 33 34 35 36 37 38 39 40 41 42 43 44 45 46 47 48 49 50
000
ASUS43 KDTX 020001
RWRMI
MICHIGAN HOURLY REGIONAL WEATHER ROUNDUP
NATIONAL WEATHER SERVICE DETROIT/PONTIAC MI
800 PM EDT TUE SEP 01 2015

NOTE: "FAIR" INDICATES FEW OR NO CLOUDS BELOW 12,000 FEET WITH NO
SIGNIFICANT WEATHER AND/OR OBSTRUCTION TO VISIBILITY.

MIZ047>049-052>055-059>063-066>070-074>076-081>083-020100-
SOUTHEAST LOWER MICHIGAN

CITY           SKY/WX    TMP DP  RH WIND       PRES   REMARKS
ADRIAN         CLEAR     81  67  62 SW7       30.05R
6HR MIN TEMP:  81; 6HR MAX TEMP:  90;

ALMA           CLEAR     79  73  81 S3        30.02R
ANN ARBOR      PTCLDY    79  69  71 S6        30.03S
BAD AXE        CLEAR     77  71  80 CALM      30.02S
DETROIT CITY   CLEAR     83  69  62 S7        30.03R
6HR MIN TEMP:  83; 6HR MAX TEMP:  88;

DETROIT        PTCLDY    82  71  69 SE6       30.04R
6HR MIN TEMP:  82; 6HR MAX TEMP:  90;

FLINT          CLEAR     84  67  56 SW3       30.03R
6HR MIN TEMP:  84; 6HR MAX TEMP:  90;

GROSSE ILE     CLEAR     77  73  88 S6        30.03S
HILLSDALE      PTCLDY    80  70  70 SW3       30.07S
HOWELL         CLEAR     81  64  54 CALM      30.04R
6HR MIN TEMP:  81; 6HR MAX TEMP:  90;


CITY           SKY/WX    TMP DP  RH WIND       PRES   REMARKS
JACKSON        CLEAR     79  69  71 SW5       30.05R
6HR MIN TEMP:  79; 6HR MAX TEMP:  86;

LAMBERTVILLE   CLEAR     81  69  66 CALM      30.05R
6HR MIN TEMP:  81; 6HR MAX TEMP:  89;

LANSING        CLEAR     81  69  67 S6        30.03S
6HR MIN TEMP:  81; 6HR MAX TEMP:  87;

LAPEER         FAIR      76  71  82 CALM      30.03S
6HR MIN TEMP:  76; 6HR MAX TEMP:  88;

MASON          CLEAR     80  67  65 CALM      30.04R
MT. CLEMENS    PTCLDY    78  72  80 S7        30.01S
6HR MIN TEMP:  78; 6HR MAX TEMP:  84;

PONTIAC        PTCLDY    83  66  56 S3        30.03S
6HR MIN TEMP:  83; 6HR MAX TEMP:  89;

PORT HOPE        N/A     74  70  87 SE6       30.00S
6HR MIN TEMP:  73; 6HR MAX TEMP:  85;

PORT HURON     CLEAR     75  72  88 CALM      30.03R
TRI CITIES     CLEAR     82  70  66 S3        30.01S
6HR MIN TEMP:  82; 6HR MAX TEMP:  87;

MIDLAND        FAIR      82  69  66 CALM      30.00R
6HR MIN TEMP:  82; 6HR MAX TEMP:  88;

TROY           CLEAR     86  65  50 SW6       30.05R
SAGINAW HB     CLEAR     79  70  73 S3        30.01R
$$
MIZ043>046-050>051-056>058-064>065-071>073-077>080-020100-
SOUTHWEST LOWER MICHIGAN

CITY           SKY/WX    TMP DP  RH WIND       PRES   REMARKS
BATTLE CREEK   PTCLDY    81  71  71 SW6       30.05R
6HR MIN TEMP:  81; 6HR MAX TEMP:  89;

BENTON HARBOR  CLEAR     80  73  79 CALM      30.01F
6HR MIN TEMP:  80; 6HR MAX TEMP:  86;

BIG RAPIDS     CLEAR     79  72  80 CALM      30.02R
6HR MIN TEMP:  79; 6HR MAX TEMP:  86;

COLDWATER      CLEAR     78  68  72 SW3       30.05S
6HR MIN TEMP:  78; 6HR MAX TEMP:  86;

FREMONT        FAIR      77  73  87 SW7       30.01S
HOLLAND        CLEAR     80  70  71 SW8       30.02S
6HR MIN TEMP:  80; 6HR MAX TEMP:  88;

GRAND RAPIDS   PTCLDY    82  74  76 W10       30.02R
6HR MIN TEMP:  82; 6HR MAX TEMP:  88;

IONIA          FAIR      83  71  66 SW6       30.02R
6HR MIN TEMP:  83; 6HR MAX TEMP:  89;

KALAMAZOO      PTCLDY    81  71  71 CALM      30.04R
6HR MIN TEMP:  80; 6HR MAX TEMP:  89;

LUDINGTON      CLEAR     81  73  77 S7        29.99S
6HR MIN TEMP:  81; 6HR MAX TEMP:  89;

MARSHALL       MOCLDY    80  68  66 CALM      30.04S
6HR MIN TEMP:  80; 6HR MAX TEMP:  88;

MOUNT PLEASANT CLEAR     84  70  61 SW3       30.00S
6HR MIN TEMP:  84; 6HR MAX TEMP:  91;

MUSKEGON       MOCLDY    78  69  73 S8        30.01S
6HR MIN TEMP:  78; 6HR MAX TEMP:  85;

SOUTH HAVEN    PTCLDY    80  71  74 SW3       30.02S
$$
MIZ016>042-020100-
NORTHERN LOWER MICHIGAN

CITY           SKY/WX    TMP DP  RH WIND       PRES   REMARKS
ALPENA         CLEAR     73  67  81 E3        29.98S
6HR MIN TEMP:  73; 6HR MAX TEMP:  88;

BEAVER ISLAND  PTCLDY    73  69  87 SW12G18   29.96S
6HR MIN TEMP:  73; 6HR MAX TEMP:  83;

BELLAIRE       PTCLDY    82  69  64 CALM      29.96S
6HR MIN TEMP:  82; 6HR MAX TEMP:  89;

CADILLAC       CLEAR     79  71  76 SW8       30.02S
CHARLEVOIX     PTCLDY    75  70  85 SW3       29.99S
FRANKFORT      CLEAR     76  71  83 S7        29.97S
GAYLORD        CLEAR     80  70  71 SW5       30.00S
6HR MIN TEMP:  80; 6HR MAX TEMP:  86;

GRAYLING       PTCLDY    79  69  73 CALM      30.01S
6HR MIN TEMP:  79; 6HR MAX TEMP:  87;

HARBOR SPRINGS MOCLDY    76  70  81 SW3       29.96S
HOUGHTON LAKE  PTCLDY    78  69  73 S6        30.01S
6HR MIN TEMP:  78; 6HR MAX TEMP:  86;

MANISTEE       CLEAR     79  70  73 S9        29.99R
OSCODA         CLEAR     79  67  67 S8        29.99R
6HR MIN TEMP:  79; 6HR MAX TEMP:  86;

PELLSTON       MOCLDY    80  71  74 CALM      29.96S
6HR MIN TEMP:  80; 6HR MAX TEMP:  87;

ROGERS CITY    PTCLDY    74  68  81 CALM      29.97S
TRAVERSE CITY  PTCLDY    84  67  56 VRB3      29.96R
6HR MIN TEMP:  84; 6HR MAX TEMP:  90;

$$
MIZ007>008-015-020100-
EASTERN UPPER MICHIGAN

CITY           SKY/WX    TMP DP  RH WIND       PRES   REMARKS
KINROSS        PTCLDY    79  72  78 S3        29.96S
6HR MIN TEMP:  79; 6HR MAX TEMP:  84;

MACKINAC ISLAN PTCLDY    74  65  73 SE3       29.97S
NEWBERRY       PTCLDY    74  70  85 S12G17    29.94S
6HR MIN TEMP:  74; 6HR MAX TEMP:  83;

S. S. MARIE    PTCLDY    80  70  71 S7        29.94S
6HR MIN TEMP:  80; 6HR MAX TEMP:  84;

$$
MIZ004>006-011>014-085-020100-
CENTRAL UPPER MICHIGAN

CITY           SKY/WX    TMP DP  RH WIND       PRES   REMARKS
MANISTIQUE     PTCLDY    68  66  94 S10G16    29.94F FOG
6HR MIN TEMP:  67; 6HR MAX TEMP:  73;

ESCANABA       CLEAR     73  70  88 SW6       29.91S
6HR MIN TEMP:  73; 6HR MAX TEMP:  79;

MENOMINEE      PTCLDY    81  70  69 SW6       29.91S
6HR MIN TEMP:  81; 6HR MAX TEMP:  86;

SAWYER-GWINN   CLEAR     82  66  57 SW6       29.93R
$$
MIZ001>003-009>011-084-020100-
WESTERN UPPER MICHIGAN

CITY           SKY/WX    TMP DP  RH WIND       PRES   REMARKS
IRON MOUNTAIN  MOCLDY    80  67  64 SW5       29.93R
6HR MIN TEMP:  80; 6HR MAX TEMP:  88;

HOUGHTON       PTCLDY    74  69  85 NW10      29.91R
6HR MIN TEMP:  74; 6HR MAX TEMP:  81;

IRONWOOD       PTCLDY    79  73  83 N3        29.90R
6HR MIN TEMP:  79; 6HR MAX TEMP:  82;

$$

ABBREVIATIONS USED IN REMARKS
   TC - TEMPERATURE IN CELSIUS
  WCI - WIND CHILL INDEX
   HX - HEAT INDEX
  VSB - VISIBILITY



USA.gov is the U.S. government's official web portal to all federal, state and local government web resources and services.